owner,sensor,date,latitude,longitude,vertical_datum,sea_water_temperature,qcFlag 
ENP,ioos.station.NOAA.NDBC:TCVF1:1,2017-11-01T00:00:00Z,25.2130,-80.5330,1.0,21.69,2 
ENP,ioos.station.NOAA.NDBC:TCVF1:1,2017-11-01T02:00:00Z,25.2130,-80.5330,1.0,21.4,2 
ENP,ioos.station.NOAA.NDBC:TCVF1:1,2017-11-01T03:00:00Z,25.2130,-80.5330,1.0,21.29,2 
ENP,ioos.station.NOAA.NDBC:TCVF1:1,2017-11-01T06:00:00Z,25.2130,-80.5330,1.0,21.0,2 
ENP,ioos.station.NOAA.NDBC:TCVF1:1,2017-11-01T07:00:00Z,25.2130,-80.5330,1.0,20.9,2 
ENP,ioos.station.NOAA.NDBC:TCVF1:1,2017-11-01T08:00:00Z,25.2130,-80.5330,1.0,20.8,2 
ENP,ioos.station.NOAA.NDBC:TCVF1:1,2017-11-01T11:00:00Z,25.2130,-80.5330,1.0,20.48,2 
ENP,ioos.station.NOAA.NDBC:TCVF1:1,2017-11-01T12:00:00Z,25.2130,-80.5330,1.0,20.39,2 
ENP,ioos.station.NOAA.NDBC:TCVF1:1,2017-11-01T13:00:00Z,25.2130,-80.5330,1.0,20.35,2 
ENP,ioos.station.NOAA.NDBC:TCVF1:1,2017-11-01T14:00:00Z,25.2130,-80.5330,1.0,20.49,2 
ENP,ioos.station.NOAA.NDBC:TCVF1:1,2017-11-01T15:00:00Z,25.2130,-80.5330,1.0,20.82,2 
ENP,ioos.station.NOAA.NDBC:TCVF1:1,2017-11-01T16:00:00Z,25.2130,-80.5330,1.0,21.04,2 
ENP,ioos.station.NOAA.NDBC:TCVF1:1,2017-11-01T17:00:00Z,25.2130,-80.5330,1.0,21.9,2 
ENP,ioos.station.NOAA.NDBC:TCVF1:1,2017-11-01T18:00:00Z,25.2130,-80.5330,1.0,22.48,2 
ENP,ioos.station.NOAA.NDBC:TCVF1:1,2017-11-01T19:00:00Z,25.2130,-80.5330,1.0,22.96,2 
ENP,ioos.station.NOAA.NDBC:TCVF1:1,2017-11-01T20:00:00Z,25.2130,-80.5330,1.0,23.28,2 
ENP,ioos.station.NOAA.NDBC:TCVF1:1,2017-11-01T21:00:00Z,25.2130,-80.5330,1.0,23.47,2 
ENP,ioos.station.NOAA.NDBC:TCVF1:1,2017-11-01T22:00:00Z,25.2130,-80.5330,1.0,23.47,2 
ENP,ioos.station.NOAA.NDBC:TCVF1:1,2017-11-01T23:00:00Z,25.2130,-80.5330,1.0,23.28,2 
ENP,ioos.station.NOAA.NDBC:TCVF1:1,2017-11-02T00:00:00Z,25.2130,-80.5330,1.0,23.06,2 
ENP,ioos.station.NOAA.NDBC:TCVF1:1,2017-11-02T02:00:00Z,25.2130,-80.5330,1.0,22.71,2 
ENP,ioos.station.NOAA.NDBC:TCVF1:1,2017-11-02T03:00:00Z,25.2130,-80.5330,1.0,22.61,2 
ENP,ioos.station.NOAA.NDBC:TCVF1:1,2017-11-02T05:00:00Z,25.2130,-80.5330,1.0,23.77,2 
ENP,ioos.station.NOAA.NDBC:TCVF1:1,2017-11-02T06:00:00Z,25.2130,-80.5330,1.0,23.86,2 
ENP,ioos.station.NOAA.NDBC:TCVF1:1,2017-11-02T07:00:00Z,25.2130,-80.5330,1.0,22.33,2 
ENP,ioos.station.NOAA.NDBC:TCVF1:1,2017-11-02T08:00:00Z,25.2130,-80.5330,1.0,23.38,2 
ENP,ioos.station.NOAA.NDBC:TCVF1:1,2017-11-02T10:00:00Z,25.2130,-80.5330,1.0,23.67,2 
ENP,ioos.station.NOAA.NDBC:TCVF1:1,2017-11-02T11:00:00Z,25.2130,-80.5330,1.0,23.34,2 
ENP,ioos.station.NOAA.NDBC:TCVF1:1,2017-11-02T12:00:00Z,25.2130,-80.5330,1.0,22.11,2 
ENP,ioos.station.NOAA.NDBC:TCVF1:1,2017-11-02T13:00:00Z,25.2130,-80.5330,1.0,22.63,2 
ENP,ioos.station.NOAA.NDBC:TCVF1:1,2017-11-02T14:00:00Z,25.2130,-80.5330,1.0,23.48,2 
ENP,ioos.station.NOAA.NDBC:TCVF1:1,2017-11-02T15:00:00Z,25.2130,-80.5330,1.0,23.21,2 
ENP,ioos.station.NOAA.NDBC:TCVF1:1,2017-11-02T16:00:00Z,25.2130,-80.5330,1.0,23.98,2 
ENP,ioos.station.NOAA.NDBC:TCVF1:1,2017-11-02T17:00:00Z,25.2130,-80.5330,1.0,23.49,2 
ENP,ioos.station.NOAA.NDBC:TCVF1:1,2017-11-02T18:00:00Z,25.2130,-80.5330,1.0,23.91,2 
ENP,ioos.station.NOAA.NDBC:TCVF1:1,2017-11-02T19:00:00Z,25.2130,-80.5330,1.0,24.41,2 
ENP,ioos.station.NOAA.NDBC:TCVF1:1,2017-11-02T20:00:00Z,25.2130,-80.5330,1.0,24.63,2 
ENP,ioos.station.NOAA.NDBC:TCVF1:1,2017-11-02T21:00:00Z,25.2130,-80.5330,1.0,24.76,2 
ENP,ioos.station.NOAA.NDBC:TCVF1:1,2017-11-02T22:00:00Z,25.2130,-80.5330,1.0,24.7,2 
ENP,ioos.station.NOAA.NDBC:TCVF1:1,2017-11-02T23:00:00Z,25.2130,-80.5330,1.0,24.5,2 
ENP,ioos.station.NOAA.NDBC:TCVF1:1,2017-11-03T00:00:00Z,25.2130,-80.5330,1.0,24.29,2 
ENP,ioos.station.NOAA.NDBC:TCVF1:1,2017-11-03T02:00:00Z,25.2130,-80.5330,1.0,24.65,2 
ENP,ioos.station.NOAA.NDBC:TCVF1:1,2017-11-03T03:00:00Z,25.2130,-80.5330,1.0,25.04,2 
ENP,ioos.station.NOAA.NDBC:TCVF1:1,2017-11-03T05:00:00Z,25.2130,-80.5330,1.0,24.89,2 
ENP,ioos.station.NOAA.NDBC:TCVF1:1,2017-11-03T06:00:00Z,25.2130,-80.5330,1.0,23.75,2 
ENP,ioos.station.NOAA.NDBC:TCVF1:1,2017-11-03T07:00:00Z,25.2130,-80.5330,1.0,23.44,2 
ENP,ioos.station.NOAA.NDBC:TCVF1:1,2017-11-03T08:00:00Z,25.2130,-80.5330,1.0,23.25,2 
ENP,ioos.station.NOAA.NDBC:TCVF1:1,2017-11-03T10:00:00Z,25.2130,-80.5330,1.0,22.96,2 
ENP,ioos.station.NOAA.NDBC:TCVF1:1,2017-11-03T11:00:00Z,25.2130,-80.5330,1.0,22.87,2 
ENP,ioos.station.NOAA.NDBC:TCVF1:1,2017-11-03T12:00:00Z,25.2130,-80.5330,1.0,22.75,2 
ENP,ioos.station.NOAA.NDBC:TCVF1:1,2017-11-03T13:00:00Z,25.2130,-80.5330,1.0,23.26,2 
ENP,ioos.station.NOAA.NDBC:TCVF1:1,2017-11-03T14:00:00Z,25.2130,-80.5330,1.0,24.02,2 
ENP,ioos.station.NOAA.NDBC:TCVF1:1,2017-11-03T15:00:00Z,25.2130,-80.5330,1.0,24.54,2 
ENP,ioos.station.NOAA.NDBC:TCVF1:1,2017-11-03T16:00:00Z,25.2130,-80.5330,1.0,23.94,2 
ENP,ioos.station.NOAA.NDBC:TCVF1:1,2017-11-03T17:00:00Z,25.2130,-80.5330,1.0,24.27,2 
ENP,ioos.station.NOAA.NDBC:TCVF1:1,2017-11-03T18:00:00Z,25.2130,-80.5330,1.0,24.65,2 
ENP,ioos.station.NOAA.NDBC:TCVF1:1,2017-11-03T19:00:00Z,25.2130,-80.5330,1.0,25.07,2 
ENP,ioos.station.NOAA.NDBC:TCVF1:1,2017-11-03T20:00:00Z,25.2130,-80.5330,1.0,25.4,2 
ENP,ioos.station.NOAA.NDBC:TCVF1:1,2017-11-03T21:00:00Z,25.2130,-80.5330,1.0,25.53,2 
ENP,ioos.station.NOAA.NDBC:TCVF1:1,2017-11-03T22:00:00Z,25.2130,-80.5330,1.0,26.02,2 
ENP,ioos.station.NOAA.NDBC:TCVF1:1,2017-11-03T23:00:00Z,25.2130,-80.5330,1.0,25.37,2 
ENP,ioos.station.NOAA.NDBC:TCVF1:1,2017-11-04T00:00:00Z,25.2130,-80.5330,1.0,25.53,2 
ENP,ioos.station.NOAA.NDBC:TCVF1:1,2017-11-04T03:00:00Z,25.2130,-80.5330,1.0,25.77,2 
ENP,ioos.station.NOAA.NDBC:TCVF1:1,2017-11-04T05:00:00Z,25.2130,-80.5330,1.0,25.62,2 
ENP,ioos.station.NOAA.NDBC:TCVF1:1,2017-11-04T06:00:00Z,25.2130,-80.5330,1.0,25.57,2 
ENP,ioos.station.NOAA.NDBC:TCVF1:1,2017-11-04T07:00:00Z,25.2130,-80.5330,1.0,24.32,2 
ENP,ioos.station.NOAA.NDBC:TCVF1:1,2017-11-04T08:00:00Z,25.2130,-80.5330,1.0,24.72,2 
ENP,ioos.station.NOAA.NDBC:TCVF1:1,2017-11-04T10:00:00Z,25.2130,-80.5330,1.0,23.78,2 
ENP,ioos.station.NOAA.NDBC:TCVF1:1,2017-11-04T11:00:00Z,25.2130,-80.5330,1.0,23.68,2 
ENP,ioos.station.NOAA.NDBC:TCVF1:1,2017-11-04T12:00:00Z,25.2130,-80.5330,1.0,23.61,2 
ENP,ioos.station.NOAA.NDBC:TCVF1:1,2017-11-04T13:00:00Z,25.2130,-80.5330,1.0,23.29,2 
ENP,ioos.station.NOAA.NDBC:TCVF1:1,2017-11-04T14:00:00Z,25.2130,-80.5330,1.0,23.62,2 
ENP,ioos.station.NOAA.NDBC:TCVF1:1,2017-11-04T15:00:00Z,25.2130,-80.5330,1.0,23.93,2 
ENP,ioos.station.NOAA.NDBC:TCVF1:1,2017-11-04T16:00:00Z,25.2130,-80.5330,1.0,24.98,2 
ENP,ioos.station.NOAA.NDBC:TCVF1:1,2017-11-04T17:00:00Z,25.2130,-80.5330,1.0,25.39,2 
ENP,ioos.station.NOAA.NDBC:TCVF1:1,2017-11-04T18:00:00Z,25.2130,-80.5330,1.0,25.63,2 
ENP,ioos.station.NOAA.NDBC:TCVF1:1,2017-11-04T19:00:00Z,25.2130,-80.5330,1.0,25.65,2 
ENP,ioos.station.NOAA.NDBC:TCVF1:1,2017-11-04T20:00:00Z,25.2130,-80.5330,1.0,26.09,2 
ENP,ioos.station.NOAA.NDBC:TCVF1:1,2017-11-04T21:00:00Z,25.2130,-80.5330,1.0,25.62,2 
ENP,ioos.station.NOAA.NDBC:TCVF1:1,2017-11-04T22:00:00Z,25.2130,-80.5330,1.0,25.72,2 
ENP,ioos.station.NOAA.NDBC:TCVF1:1,2017-11-04T23:00:00Z,25.2130,-80.5330,1.0,25.46,2 
ENP,ioos.station.NOAA.NDBC:TCVF1:1,2017-11-05T00:00:00Z,25.2130,-80.5330,1.0,25.58,2 
ENP,ioos.station.NOAA.NDBC:TCVF1:1,2017-11-05T02:00:00Z,25.2130,-80.5330,1.0,25.4,2 
ENP,ioos.station.NOAA.NDBC:TCVF1:1,2017-11-05T03:00:00Z,25.2130,-80.5330,1.0,25.59,2 
ENP,ioos.station.NOAA.NDBC:TCVF1:1,2017-11-05T07:00:00Z,25.2130,-80.5330,1.0,25.9,2 
ENP,ioos.station.NOAA.NDBC:TCVF1:1,2017-11-05T08:00:00Z,25.2130,-80.5330,1.0,25.75,2 
ENP,ioos.station.NOAA.NDBC:TCVF1:1,2017-11-05T09:00:00Z,25.2130,-80.5330,1.0,25.69,2 
ENP,ioos.station.NOAA.NDBC:TCVF1:1,2017-11-05T12:00:00Z,25.2130,-80.5330,1.0,23.81,2 
ENP,ioos.station.NOAA.NDBC:TCVF1:1,2017-11-05T13:00:00Z,25.2130,-80.5330,1.0,23.73,2 
ENP,ioos.station.NOAA.NDBC:TCVF1:1,2017-11-05T14:00:00Z,25.2130,-80.5330,1.0,23.83,2 
ENP,ioos.station.NOAA.NDBC:TCVF1:1,2017-11-05T15:00:00Z,25.2130,-80.5330,1.0,24.24,2 
ENP,ioos.station.NOAA.NDBC:TCVF1:1,2017-11-05T16:00:00Z,25.2130,-80.5330,1.0,25.17,2 
ENP,ioos.station.NOAA.NDBC:TCVF1:1,2017-11-05T17:00:00Z,25.2130,-80.5330,1.0,26.27,2 
ENP,ioos.station.NOAA.NDBC:TCVF1:1,2017-11-05T18:00:00Z,25.2130,-80.5330,1.0,25.9,2 
ENP,ioos.station.NOAA.NDBC:TCVF1:1,2017-11-05T19:00:00Z,25.2130,-80.5330,1.0,26.38,2 
ENP,ioos.station.NOAA.NDBC:TCVF1:1,2017-11-05T20:00:00Z,25.2130,-80.5330,1.0,26.55,2 
ENP,ioos.station.NOAA.NDBC:TCVF1:1,2017-11-05T21:00:00Z,25.2130,-80.5330,1.0,26.67,2 
ENP,ioos.station.NOAA.NDBC:TCVF1:1,2017-11-05T22:00:00Z,25.2130,-80.5330,1.0,26.97,2 
ENP,ioos.station.NOAA.NDBC:TCVF1:1,2017-11-05T23:00:00Z,25.2130,-80.5330,1.0,27.27,2 
ENP,ioos.station.NOAA.NDBC:TCVF1:1,2017-11-06T00:00:00Z,25.2130,-80.5330,1.0,27.08,2 
ENP,ioos.station.NOAA.NDBC:TCVF1:1,2017-11-06T01:00:00Z,25.2130,-80.5330,1.0,26.91,2 
ENP,ioos.station.NOAA.NDBC:TCVF1:1,2017-11-06T03:00:00Z,25.2130,-80.5330,1.0,26.67,2 
ENP,ioos.station.NOAA.NDBC:TCVF1:1,2017-11-06T04:00:00Z,25.2130,-80.5330,1.0,26.63,2 
ENP,ioos.station.NOAA.NDBC:TCVF1:1,2017-11-06T06:00:00Z,25.2130,-80.5330,1.0,26.46,2 
ENP,ioos.station.NOAA.NDBC:TCVF1:1,2017-11-06T07:00:00Z,25.2130,-80.5330,1.0,26.44,2 
ENP,ioos.station.NOAA.NDBC:TCVF1:1,2017-11-06T08:00:00Z,25.2130,-80.5330,1.0,26.43,2 
ENP,ioos.station.NOAA.NDBC:TCVF1:1,2017-11-06T09:00:00Z,25.2130,-80.5330,1.0,26.47,2 
ENP,ioos.station.NOAA.NDBC:TCVF1:1,2017-11-06T11:00:00Z,25.2130,-80.5330,1.0,26.38,2 
ENP,ioos.station.NOAA.NDBC:TCVF1:1,2017-11-06T12:00:00Z,25.2130,-80.5330,1.0,26.33,2 
ENP,ioos.station.NOAA.NDBC:TCVF1:1,2017-11-06T13:00:00Z,25.2130,-80.5330,1.0,25.77,2 
ENP,ioos.station.NOAA.NDBC:TCVF1:1,2017-11-06T14:00:00Z,25.2130,-80.5330,1.0,25.56,2 
ENP,ioos.station.NOAA.NDBC:TCVF1:1,2017-11-06T15:00:00Z,25.2130,-80.5330,1.0,26.19,2 
ENP,ioos.station.NOAA.NDBC:TCVF1:1,2017-11-06T16:00:00Z,25.2130,-80.5330,1.0,26.43,2 
ENP,ioos.station.NOAA.NDBC:TCVF1:1,2017-11-06T17:00:00Z,25.2130,-80.5330,1.0,26.81,2 
ENP,ioos.station.NOAA.NDBC:TCVF1:1,2017-11-06T18:00:00Z,25.2130,-80.5330,1.0,27.13,2 
ENP,ioos.station.NOAA.NDBC:TCVF1:1,2017-11-06T19:00:00Z,25.2130,-80.5330,1.0,27.47,2 
ENP,ioos.station.NOAA.NDBC:TCVF1:1,2017-11-06T20:00:00Z,25.2130,-80.5330,1.0,27.91,2 
ENP,ioos.station.NOAA.NDBC:TCVF1:1,2017-11-06T21:00:00Z,25.2130,-80.5330,1.0,28.1,2 
ENP,ioos.station.NOAA.NDBC:TCVF1:1,2017-11-06T22:00:00Z,25.2130,-80.5330,1.0,28.48,2 
ENP,ioos.station.NOAA.NDBC:TCVF1:1,2017-11-06T23:00:00Z,25.2130,-80.5330,1.0,28.19,2 
ENP,ioos.station.NOAA.NDBC:TCVF1:1,2017-11-07T00:00:00Z,25.2130,-80.5330,1.0,27.9,2 
ENP,ioos.station.NOAA.NDBC:TCVF1:1,2017-11-07T01:00:00Z,25.2130,-80.5330,1.0,27.64,2 
ENP,ioos.station.NOAA.NDBC:TCVF1:1,2017-11-07T03:00:00Z,25.2130,-80.5330,1.0,27.22,2 
ENP,ioos.station.NOAA.NDBC:TCVF1:1,2017-11-07T04:00:00Z,25.2130,-80.5330,1.0,27.27,2 
ENP,ioos.station.NOAA.NDBC:TCVF1:1,2017-11-07T06:00:00Z,25.2130,-80.5330,1.0,27.82,2 
ENP,ioos.station.NOAA.NDBC:TCVF1:1,2017-11-07T07:00:00Z,25.2130,-80.5330,1.0,27.8,2 
ENP,ioos.station.NOAA.NDBC:TCVF1:1,2017-11-07T08:00:00Z,25.2130,-80.5330,1.0,27.49,2 
ENP,ioos.station.NOAA.NDBC:TCVF1:1,2017-11-07T09:00:00Z,25.2130,-80.5330,1.0,27.4,2 
ENP,ioos.station.NOAA.NDBC:TCVF1:1,2017-11-07T11:00:00Z,25.2130,-80.5330,1.0,26.64,2 
ENP,ioos.station.NOAA.NDBC:TCVF1:1,2017-11-07T12:00:00Z,25.2130,-80.5330,1.0,26.23,2 
ENP,ioos.station.NOAA.NDBC:TCVF1:1,2017-11-07T13:00:00Z,25.2130,-80.5330,1.0,26.06,2 
ENP,ioos.station.NOAA.NDBC:TCVF1:1,2017-11-07T14:00:00Z,25.2130,-80.5330,1.0,26.13,2 
ENP,ioos.station.NOAA.NDBC:TCVF1:1,2017-11-07T15:00:00Z,25.2130,-80.5330,1.0,26.32,2 
ENP,ioos.station.NOAA.NDBC:TCVF1:1,2017-11-07T16:00:00Z,25.2130,-80.5330,1.0,26.52,2 
ENP,ioos.station.NOAA.NDBC:TCVF1:1,2017-11-07T17:00:00Z,25.2130,-80.5330,1.0,26.81,2 
ENP,ioos.station.NOAA.NDBC:TCVF1:1,2017-11-07T18:00:00Z,25.2130,-80.5330,1.0,27.17,2 
ENP,ioos.station.NOAA.NDBC:TCVF1:1,2017-11-07T19:00:00Z,25.2130,-80.5330,1.0,27.83,2 
ENP,ioos.station.NOAA.NDBC:TCVF1:1,2017-11-07T20:00:00Z,25.2130,-80.5330,1.0,28.21,2 
ENP,ioos.station.NOAA.NDBC:TCVF1:1,2017-11-07T21:00:00Z,25.2130,-80.5330,1.0,28.42,2 
ENP,ioos.station.NOAA.NDBC:TCVF1:1,2017-11-07T22:00:00Z,25.2130,-80.5330,1.0,28.13,2 
ENP,ioos.station.NOAA.NDBC:TCVF1:1,2017-11-07T23:00:00Z,25.2130,-80.5330,1.0,27.97,2 
ENP,ioos.station.NOAA.NDBC:TCVF1:1,2017-11-08T00:00:00Z,25.2130,-80.5330,1.0,27.77,2 
ENP,ioos.station.NOAA.NDBC:TCVF1:1,2017-11-08T01:00:00Z,25.2130,-80.5330,1.0,28.11,2 
ENP,ioos.station.NOAA.NDBC:TCVF1:1,2017-11-08T04:00:00Z,25.2130,-80.5330,1.0,28.2,2 
ENP,ioos.station.NOAA.NDBC:TCVF1:1,2017-11-08T06:00:00Z,25.2130,-80.5330,1.0,27.12,2 
ENP,ioos.station.NOAA.NDBC:TCVF1:1,2017-11-08T07:00:00Z,25.2130,-80.5330,1.0,27.1,2 
ENP,ioos.station.NOAA.NDBC:TCVF1:1,2017-11-08T11:00:00Z,25.2130,-80.5330,1.0,27.77,2 
ENP,ioos.station.NOAA.NDBC:TCVF1:1,2017-11-08T12:00:00Z,25.2130,-80.5330,1.0,26.17,2 
ENP,ioos.station.NOAA.NDBC:TCVF1:1,2017-11-08T13:00:00Z,25.2130,-80.5330,1.0,25.91,2 
ENP,ioos.station.NOAA.NDBC:TCVF1:1,2017-11-08T14:00:00Z,25.2130,-80.5330,1.0,25.94,2 
ENP,ioos.station.NOAA.NDBC:TCVF1:1,2017-11-08T15:00:00Z,25.2130,-80.5330,1.0,26.1,2 
ENP,ioos.station.NOAA.NDBC:TCVF1:1,2017-11-08T16:00:00Z,25.2130,-80.5330,1.0,26.53,2 
ENP,ioos.station.NOAA.NDBC:TCVF1:1,2017-11-08T17:00:00Z,25.2130,-80.5330,1.0,26.86,2 
ENP,ioos.station.NOAA.NDBC:TCVF1:1,2017-11-08T18:00:00Z,25.2130,-80.5330,1.0,27.3,2 
ENP,ioos.station.NOAA.NDBC:TCVF1:1,2017-11-08T19:00:00Z,25.2130,-80.5330,1.0,27.71,2 
ENP,ioos.station.NOAA.NDBC:TCVF1:1,2017-11-08T20:00:00Z,25.2130,-80.5330,1.0,28.04,2 
ENP,ioos.station.NOAA.NDBC:TCVF1:1,2017-11-08T21:00:00Z,25.2130,-80.5330,1.0,28.28,2 
ENP,ioos.station.NOAA.NDBC:TCVF1:1,2017-11-08T22:00:00Z,25.2130,-80.5330,1.0,28.94,2 
ENP,ioos.station.NOAA.NDBC:TCVF1:1,2017-11-08T23:00:00Z,25.2130,-80.5330,1.0,28.0,2 
ENP,ioos.station.NOAA.NDBC:TCVF1:1,2017-11-09T00:00:00Z,25.2130,-80.5330,1.0,27.68,2 
ENP,ioos.station.NOAA.NDBC:TCVF1:1,2017-11-09T01:00:00Z,25.2130,-80.5330,1.0,27.49,2 
ENP,ioos.station.NOAA.NDBC:TCVF1:1,2017-11-09T03:00:00Z,25.2130,-80.5330,1.0,28.21,2 
ENP,ioos.station.NOAA.NDBC:TCVF1:1,2017-11-09T04:00:00Z,25.2130,-80.5330,1.0,28.39,2 
ENP,ioos.station.NOAA.NDBC:TCVF1:1,2017-11-09T06:00:00Z,25.2130,-80.5330,1.0,28.05,2 
ENP,ioos.station.NOAA.NDBC:TCVF1:1,2017-11-09T07:00:00Z,25.2130,-80.5330,1.0,27.1,2 
ENP,ioos.station.NOAA.NDBC:TCVF1:1,2017-11-09T08:00:00Z,25.2130,-80.5330,1.0,27.49,2 
ENP,ioos.station.NOAA.NDBC:TCVF1:1,2017-11-09T09:00:00Z,25.2130,-80.5330,1.0,26.62,2 
ENP,ioos.station.NOAA.NDBC:TCVF1:1,2017-11-09T11:00:00Z,25.2130,-80.5330,1.0,26.81,2 
ENP,ioos.station.NOAA.NDBC:TCVF1:1,2017-11-09T12:00:00Z,25.2130,-80.5330,1.0,26.25,2 
ENP,ioos.station.NOAA.NDBC:TCVF1:1,2017-11-09T13:00:00Z,25.2130,-80.5330,1.0,26.31,2 
ENP,ioos.station.NOAA.NDBC:TCVF1:1,2017-11-09T14:00:00Z,25.2130,-80.5330,1.0,26.17,2 
ENP,ioos.station.NOAA.NDBC:TCVF1:1,2017-11-09T15:00:00Z,25.2130,-80.5330,1.0,27.38,2 
ENP,ioos.station.NOAA.NDBC:TCVF1:1,2017-11-09T16:00:00Z,25.2130,-80.5330,1.0,27.63,2 
ENP,ioos.station.NOAA.NDBC:TCVF1:1,2017-11-09T17:00:00Z,25.2130,-80.5330,1.0,27.22,2 
ENP,ioos.station.NOAA.NDBC:TCVF1:1,2017-11-09T18:00:00Z,25.2130,-80.5330,1.0,28.29,2 
ENP,ioos.station.NOAA.NDBC:TCVF1:1,2017-11-09T19:00:00Z,25.2130,-80.5330,1.0,28.37,2 
ENP,ioos.station.NOAA.NDBC:TCVF1:1,2017-11-09T20:00:00Z,25.2130,-80.5330,1.0,28.33,2 
ENP,ioos.station.NOAA.NDBC:TCVF1:1,2017-11-09T21:00:00Z,25.2130,-80.5330,1.0,28.44,2 
ENP,ioos.station.NOAA.NDBC:TCVF1:1,2017-11-09T22:00:00Z,25.2130,-80.5330,1.0,28.39,2 
ENP,ioos.station.NOAA.NDBC:TCVF1:1,2017-11-09T23:00:00Z,25.2130,-80.5330,1.0,28.18,2 
ENP,ioos.station.NOAA.NDBC:TCVF1:1,2017-11-10T00:00:00Z,25.2130,-80.5330,1.0,28.91,2 
ENP,ioos.station.NOAA.NDBC:TCVF1:1,2017-11-10T01:00:00Z,25.2130,-80.5330,1.0,29.21,2 
ENP,ioos.station.NOAA.NDBC:TCVF1:1,2017-11-10T03:00:00Z,25.2130,-80.5330,1.0,28.92,2 
ENP,ioos.station.NOAA.NDBC:TCVF1:1,2017-11-10T04:00:00Z,25.2130,-80.5330,1.0,28.66,2 
ENP,ioos.station.NOAA.NDBC:TCVF1:1,2017-11-10T06:00:00Z,25.2130,-80.5330,1.0,27.95,2 
ENP,ioos.station.NOAA.NDBC:TCVF1:1,2017-11-10T07:00:00Z,25.2130,-80.5330,1.0,27.79,2 
ENP,ioos.station.NOAA.NDBC:TCVF1:1,2017-11-10T08:00:00Z,25.2130,-80.5330,1.0,27.3,2 
ENP,ioos.station.NOAA.NDBC:TCVF1:1,2017-11-10T09:00:00Z,25.2130,-80.5330,1.0,27.63,2 
ENP,ioos.station.NOAA.NDBC:TCVF1:1,2017-11-10T11:00:00Z,25.2130,-80.5330,1.0,27.31,2 
ENP,ioos.station.NOAA.NDBC:TCVF1:1,2017-11-10T12:00:00Z,25.2130,-80.5330,1.0,27.44,2 
ENP,ioos.station.NOAA.NDBC:TCVF1:1,2017-11-10T13:00:00Z,25.2130,-80.5330,1.0,26.72,2 
ENP,ioos.station.NOAA.NDBC:TCVF1:1,2017-11-10T14:00:00Z,25.2130,-80.5330,1.0,26.79,2 
ENP,ioos.station.NOAA.NDBC:TCVF1:1,2017-11-10T15:00:00Z,25.2130,-80.5330,1.0,26.69,2 
ENP,ioos.station.NOAA.NDBC:TCVF1:1,2017-11-10T16:00:00Z,25.2130,-80.5330,1.0,26.95,2 
ENP,ioos.station.NOAA.NDBC:TCVF1:1,2017-11-10T17:00:00Z,25.2130,-80.5330,1.0,27.54,2 
ENP,ioos.station.NOAA.NDBC:TCVF1:1,2017-11-10T18:00:00Z,25.2130,-80.5330,1.0,28.91,2 
ENP,ioos.station.NOAA.NDBC:TCVF1:1,2017-11-10T19:00:00Z,25.2130,-80.5330,1.0,28.26,2 
ENP,ioos.station.NOAA.NDBC:TCVF1:1,2017-11-10T20:00:00Z,25.2130,-80.5330,1.0,28.49,2 
ENP,ioos.station.NOAA.NDBC:TCVF1:1,2017-11-10T21:00:00Z,25.2130,-80.5330,1.0,28.32,2 
ENP,ioos.station.NOAA.NDBC:TCVF1:1,2017-11-10T22:00:00Z,25.2130,-80.5330,1.0,28.19,2 
ENP,ioos.station.NOAA.NDBC:TCVF1:1,2017-11-10T23:00:00Z,25.2130,-80.5330,1.0,27.93,2 
ENP,ioos.station.NOAA.NDBC:TCVF1:1,2017-11-11T00:00:00Z,25.2130,-80.5330,1.0,27.56,2 
ENP,ioos.station.NOAA.NDBC:TCVF1:1,2017-11-11T01:00:00Z,25.2130,-80.5330,1.0,27.27,2 
ENP,ioos.station.NOAA.NDBC:TCVF1:1,2017-11-11T03:00:00Z,25.2130,-80.5330,1.0,26.82,2 
ENP,ioos.station.NOAA.NDBC:TCVF1:1,2017-11-11T04:00:00Z,25.2130,-80.5330,1.0,26.66,2 
ENP,ioos.station.NOAA.NDBC:TCVF1:1,2017-11-11T06:00:00Z,25.2130,-80.5330,1.0,26.35,2 
ENP,ioos.station.NOAA.NDBC:TCVF1:1,2017-11-11T07:00:00Z,25.2130,-80.5330,1.0,26.24,2 
ENP,ioos.station.NOAA.NDBC:TCVF1:1,2017-11-11T08:00:00Z,25.2130,-80.5330,1.0,26.12,2 
ENP,ioos.station.NOAA.NDBC:TCVF1:1,2017-11-11T09:00:00Z,25.2130,-80.5330,1.0,26.0,2 
ENP,ioos.station.NOAA.NDBC:TCVF1:1,2017-11-11T11:00:00Z,25.2130,-80.5330,1.0,25.8,2 
ENP,ioos.station.NOAA.NDBC:TCVF1:1,2017-11-11T12:00:00Z,25.2130,-80.5330,1.0,25.65,2 
ENP,ioos.station.NOAA.NDBC:TCVF1:1,2017-11-11T13:00:00Z,25.2130,-80.5330,1.0,25.54,2 
ENP,ioos.station.NOAA.NDBC:TCVF1:1,2017-11-11T14:00:00Z,25.2130,-80.5330,1.0,25.57,2 
ENP,ioos.station.NOAA.NDBC:TCVF1:1,2017-11-11T15:00:00Z,25.2130,-80.5330,1.0,25.8,2 
ENP,ioos.station.NOAA.NDBC:TCVF1:1,2017-11-11T16:00:00Z,25.2130,-80.5330,1.0,26.11,2 
ENP,ioos.station.NOAA.NDBC:TCVF1:1,2017-11-11T17:00:00Z,25.2130,-80.5330,1.0,26.44,2 
ENP,ioos.station.NOAA.NDBC:TCVF1:1,2017-11-11T18:00:00Z,25.2130,-80.5330,1.0,26.61,2 
ENP,ioos.station.NOAA.NDBC:TCVF1:1,2017-11-11T19:00:00Z,25.2130,-80.5330,1.0,26.86,2 
ENP,ioos.station.NOAA.NDBC:TCVF1:1,2017-11-11T20:00:00Z,25.2130,-80.5330,1.0,27.01,2 
ENP,ioos.station.NOAA.NDBC:TCVF1:1,2017-11-11T21:00:00Z,25.2130,-80.5330,1.0,27.0,2 
ENP,ioos.station.NOAA.NDBC:TCVF1:1,2017-11-11T22:00:00Z,25.2130,-80.5330,1.0,26.81,2 
ENP,ioos.station.NOAA.NDBC:TCVF1:1,2017-11-11T23:00:00Z,25.2130,-80.5330,1.0,26.53,2 
ENP,ioos.station.NOAA.NDBC:TCVF1:1,2017-11-12T00:00:00Z,25.2130,-80.5330,1.0,26.26,2 
ENP,ioos.station.NOAA.NDBC:TCVF1:1,2017-11-12T01:00:00Z,25.2130,-80.5330,1.0,26.04,2 
ENP,ioos.station.NOAA.NDBC:TCVF1:1,2017-11-12T04:00:00Z,25.2130,-80.5330,1.0,25.53,2 
ENP,ioos.station.NOAA.NDBC:TCVF1:1,2017-11-12T07:00:00Z,25.2130,-80.5330,1.0,25.17,2 
ENP,ioos.station.NOAA.NDBC:TCVF1:1,2017-11-12T08:00:00Z,25.2130,-80.5330,1.0,25.08,2 
ENP,ioos.station.NOAA.NDBC:TCVF1:1,2017-11-12T09:00:00Z,25.2130,-80.5330,1.0,25.03,2 
ENP,ioos.station.NOAA.NDBC:TCVF1:1,2017-11-12T12:00:00Z,25.2130,-80.5330,1.0,24.84,2 
ENP,ioos.station.NOAA.NDBC:TCVF1:1,2017-11-12T13:00:00Z,25.2130,-80.5330,1.0,24.8,2 
ENP,ioos.station.NOAA.NDBC:TCVF1:1,2017-11-12T14:00:00Z,25.2130,-80.5330,1.0,24.84,2 
ENP,ioos.station.NOAA.NDBC:TCVF1:1,2017-11-12T15:00:00Z,25.2130,-80.5330,1.0,25.07,2 
ENP,ioos.station.NOAA.NDBC:TCVF1:1,2017-11-12T16:00:00Z,25.2130,-80.5330,1.0,25.39,2 
ENP,ioos.station.NOAA.NDBC:TCVF1:1,2017-11-12T17:00:00Z,25.2130,-80.5330,1.0,25.54,2 
ENP,ioos.station.NOAA.NDBC:TCVF1:1,2017-11-12T18:00:00Z,25.2130,-80.5330,1.0,25.82,2 
ENP,ioos.station.NOAA.NDBC:TCVF1:1,2017-11-12T19:00:00Z,25.2130,-80.5330,1.0,25.86,2 
ENP,ioos.station.NOAA.NDBC:TCVF1:1,2017-11-12T20:00:00Z,25.2130,-80.5330,1.0,26.07,2 
ENP,ioos.station.NOAA.NDBC:TCVF1:1,2017-11-12T21:00:00Z,25.2130,-80.5330,1.0,26.29,2 
ENP,ioos.station.NOAA.NDBC:TCVF1:1,2017-11-12T22:00:00Z,25.2130,-80.5330,1.0,26.29,2 
ENP,ioos.station.NOAA.NDBC:TCVF1:1,2017-11-12T23:00:00Z,25.2130,-80.5330,1.0,26.15,2 
ENP,ioos.station.NOAA.NDBC:TCVF1:1,2017-11-13T00:00:00Z,25.2130,-80.5330,1.0,25.96,2 
ENP,ioos.station.NOAA.NDBC:TCVF1:1,2017-11-13T01:00:00Z,25.2130,-80.5330,1.0,25.81,2 
ENP,ioos.station.NOAA.NDBC:TCVF1:1,2017-11-13T03:00:00Z,25.2130,-80.5330,1.0,25.59,2 
ENP,ioos.station.NOAA.NDBC:TCVF1:1,2017-11-13T04:00:00Z,25.2130,-80.5330,1.0,25.51,2 
ENP,ioos.station.NOAA.NDBC:TCVF1:1,2017-11-13T06:00:00Z,25.2130,-80.5330,1.0,25.37,2 
ENP,ioos.station.NOAA.NDBC:TCVF1:1,2017-11-13T07:00:00Z,25.2130,-80.5330,1.0,25.32,2 
ENP,ioos.station.NOAA.NDBC:TCVF1:1,2017-11-13T08:00:00Z,25.2130,-80.5330,1.0,25.28,2 
ENP,ioos.station.NOAA.NDBC:TCVF1:1,2017-11-13T09:00:00Z,25.2130,-80.5330,1.0,25.22,2 
ENP,ioos.station.NOAA.NDBC:TCVF1:1,2017-11-13T11:00:00Z,25.2130,-80.5330,1.0,25.59,2 
ENP,ioos.station.NOAA.NDBC:TCVF1:1,2017-11-13T12:00:00Z,25.2130,-80.5330,1.0,25.85,2 
ENP,ioos.station.NOAA.NDBC:TCVF1:1,2017-11-13T13:00:00Z,25.2130,-80.5330,1.0,26.17,2 
ENP,ioos.station.NOAA.NDBC:TCVF1:1,2017-11-13T14:00:00Z,25.2130,-80.5330,1.0,26.05,2 
ENP,ioos.station.NOAA.NDBC:TCVF1:1,2017-11-13T15:00:00Z,25.2130,-80.5330,1.0,26.09,2 
ENP,ioos.station.NOAA.NDBC:TCVF1:1,2017-11-13T16:00:00Z,25.2130,-80.5330,1.0,27.28,2 
ENP,ioos.station.NOAA.NDBC:TCVF1:1,2017-11-13T17:00:00Z,25.2130,-80.5330,1.0,26.54,2 
ENP,ioos.station.NOAA.NDBC:TCVF1:1,2017-11-13T18:00:00Z,25.2130,-80.5330,1.0,26.68,2 
ENP,ioos.station.NOAA.NDBC:TCVF1:1,2017-11-13T19:00:00Z,25.2130,-80.5330,1.0,26.86,2 
ENP,ioos.station.NOAA.NDBC:TCVF1:1,2017-11-13T20:00:00Z,25.2130,-80.5330,1.0,26.93,2 
ENP,ioos.station.NOAA.NDBC:TCVF1:1,2017-11-13T21:00:00Z,25.2130,-80.5330,1.0,26.77,2 
ENP,ioos.station.NOAA.NDBC:TCVF1:1,2017-11-13T22:00:00Z,25.2130,-80.5330,1.0,26.8,2 
ENP,ioos.station.NOAA.NDBC:TCVF1:1,2017-11-13T23:00:00Z,25.2130,-80.5330,1.0,26.48,2 
ENP,ioos.station.NOAA.NDBC:TCVF1:1,2017-11-14T00:00:00Z,25.2130,-80.5330,1.0,26.28,2 
ENP,ioos.station.NOAA.NDBC:TCVF1:1,2017-11-14T01:00:00Z,25.2130,-80.5330,1.0,26.09,2 
ENP,ioos.station.NOAA.NDBC:TCVF1:1,2017-11-14T03:00:00Z,25.2130,-80.5330,1.0,26.76,2 
ENP,ioos.station.NOAA.NDBC:TCVF1:1,2017-11-14T04:00:00Z,25.2130,-80.5330,1.0,25.83,2 
ENP,ioos.station.NOAA.NDBC:TCVF1:1,2017-11-14T06:00:00Z,25.2130,-80.5330,1.0,26.36,2 
ENP,ioos.station.NOAA.NDBC:TCVF1:1,2017-11-14T07:00:00Z,25.2130,-80.5330,1.0,25.71,2 
ENP,ioos.station.NOAA.NDBC:TCVF1:1,2017-11-14T08:00:00Z,25.2130,-80.5330,1.0,25.71,2 
ENP,ioos.station.NOAA.NDBC:TCVF1:1,2017-11-14T09:00:00Z,25.2130,-80.5330,1.0,25.54,2 
ENP,ioos.station.NOAA.NDBC:TCVF1:1,2017-11-14T11:00:00Z,25.2130,-80.5330,1.0,25.04,2 
ENP,ioos.station.NOAA.NDBC:TCVF1:1,2017-11-14T12:00:00Z,25.2130,-80.5330,1.0,24.94,2 
ENP,ioos.station.NOAA.NDBC:TCVF1:1,2017-11-14T13:00:00Z,25.2130,-80.5330,1.0,24.87,2 
ENP,ioos.station.NOAA.NDBC:TCVF1:1,2017-11-14T14:00:00Z,25.2130,-80.5330,1.0,25.49,2 
ENP,ioos.station.NOAA.NDBC:TCVF1:1,2017-11-14T15:00:00Z,25.2130,-80.5330,1.0,25.55,2 
ENP,ioos.station.NOAA.NDBC:TCVF1:1,2017-11-14T16:00:00Z,25.2130,-80.5330,1.0,25.38,2 
ENP,ioos.station.NOAA.NDBC:TCVF1:1,2017-11-14T17:00:00Z,25.2130,-80.5330,1.0,25.81,2 
ENP,ioos.station.NOAA.NDBC:TCVF1:1,2017-11-14T18:00:00Z,25.2130,-80.5330,1.0,26.8,2 
ENP,ioos.station.NOAA.NDBC:TCVF1:1,2017-11-14T19:00:00Z,25.2130,-80.5330,1.0,26.89,2 